Regional Weather Roundup
Issued by NWS

Home | Current Version | Previous Version | Graphics & Text | Print | Product List | Glossary On
Versions: 1 2 3 4 5 6 7 8 9 10 11 12 13 14 15 16 17 18 19 20 21 22 23 24 25 26 27 28 29 30 31 32 33 34 35 36 37 38 39 40 41 42 43 44 45 46 47 48 49 50
000
ASUS43 KIND 071159
RWRIN

WEATHER ROUNDUP FOR INDIANA
NATIONAL WEATHER SERVICE INDIANAPOLIS IN
700 AM EST SUN FEB 07 2016

NOTE: "FAIR" INDICATES FEW OR NO CLOUDS BELOW 12,000 FEET WITH NO
SIGNIFICANT WEATHER AND/OR OBSTRUCTIONS TO VISIBILITY.

* - STATION DOES NOT REPORT WEATHER SUCH AS PRECIPITATION OR FOG.

+ - STATION NOT QUALITY CONTROLLED BY THE NATIONAL WEATHER SERVICE.
    USE DATA WITH CAUTION...ESPECIALLY DEWPOINT AND RELATIVE
    HUMIDITY OBSERVATIONS.

INZ001>003-010>013-019-020-071300-
NORTHWEST INDIANA

CITY           SKY/WX    TMP DP  RH WIND       PRES   REMARKS
GARY /AIRPORT/ PTCLDY    41  27  56 S8G20     29.92F

$$

LMZ046-743>745-071300-
SOUTHERN LAKE MICHIGAN

STATION/POSITION TIME  TEMP    WIND        PRES    WAVE
                       AIR SEA DIR/SP/G            HT
                 (UTC) (F)     (DEG/KT/KT) (MB)    (FT)
BURNS HARBOR     1100   37     190/ 12/ 15 1014.2F
MICHIGAN CITY    1100   38     160/ 14/ 17   N/A

$$

INZ004-005-014>016-021>024-071300-
NORTH CENTRAL INDIANA

CITY           SKY/WX    TMP DP  RH WIND       PRES   REMARKS
GOSHEN         CLOUDY    35  26  69 S10       29.96F WCI  27
6HR MIN TEMP:  32; 6HR MAX TEMP:  35;

PERU/GRISSOM   MOCLDY    33  26  75 SW12      29.97F WCI  25
6HR MIN TEMP:  31; 6HR MAX TEMP:  35;

SOUTH BEND     CLOUDY    35  27  72 S10       29.94F WCI  27
6HR MIN TEMP:  31; 6HR MAX TEMP:  35;


$$

INZ006>009-017-018-025>027-071300-
NORTHEAST INDIANA

CITY           SKY/WX    TMP DP  RH WIND       PRES   REMARKS
FORT WAYNE     MOCLDY    33  26  75 SW10      30.01F WCI  25
6HR MIN TEMP:  30; 6HR MAX TEMP:  33;


$$

INZ028-029-035-036-043>045-051>053-071300-
WEST CENTRAL INDIANA

CITY           SKY/WX    TMP DP  RH WIND       PRES   REMARKS
GREENCASTLE +  CLOUDY    34  18  51 S5        30.05F WCI  30
LAFAYETTE      CLOUDY    35  25  66 SW6       30.00F WCI  30
6HR MIN TEMP:  30; 6HR MAX TEMP:  35;

TERRE HAUTE    CLOUDY    36  23  59 SW8       30.06F
6HR MIN TEMP:  36; 6HR MAX TEMP:  40;


$$

INZ030>032-037>040-046>048-054>057-064-065-071300-
CENTRAL INDIANA

CITY           SKY/WX    TMP DP  RH WIND       PRES   REMARKS
GREENWOOD *+   CLOUDY    36  27  69 SW6       30.07
INDIANAPOLIS   CLOUDY    33  22  63 SW9       30.04F WCI  25
6HR MIN TEMP:  32; 6HR MAX TEMP:  36;

-EAGLE CREEK   CLOUDY    34  23  64 S6        30.04F WCI  29
6HR MIN TEMP:  32; 6HR MAX TEMP:  36;

KOKOMO *+        N/A     36  23  60 SW12      30.01F
6HR MIN TEMP:  34; 6HR MAX TEMP:  36;

MT COMFORT *+  CLOUDY    32  23  69 S6        30.06F WCI  26
SHELBYVILLE    CLOUDY    34  23  64 S9        30.07F WCI  27
6HR MIN TEMP:  32; 6HR MAX TEMP:  37;


$$

INZ033-034-041-042-049-050-058-059-071300-
EAST CENTRAL INDIANA

CITY           SKY/WX    TMP DP  RH WIND       PRES   REMARKS
MUNCIE         CLOUDY    37  23  56 SW9       30.03F
6HR MIN TEMP:  36; 6HR MAX TEMP:  39;


$$

INZ060-061-067>069-081>083-085>088-071300-
SOUTHWEST INDIANA

CITY           SKY/WX    TMP DP  RH WIND       PRES   REMARKS
EVANSVILLE     CLOUDY    34  23  64 SW5       30.15F WCI  30
6HR MIN TEMP:  34; 6HR MAX TEMP:  38;

HUNTINGBURG *+ CLEAR     34  21  60 S8        30.15S WCI  27
6HR MIN TEMP:  34; 6HR MAX TEMP:  37;


$$

INZ062-063-066-070>080-084-089>092-071300-
SOUTH CENTRAL AND SOUTHEAST INDIANA

CITY           SKY/WX    TMP DP  RH WIND       PRES   REMARKS
BLOOMINGTON    CLOUDY    36  23  59 SW7       30.09F
6HR MIN TEMP:  35; 6HR MAX TEMP:  41;

MADISON *+     CLEAR     28  27  93 CALM      30.15S
SEYMOUR +      CLEAR     36  23  60 SW6       30.11F

$$




USA.gov is the U.S. government's official web portal to all federal, state and local government web resources and services.